Weather History for Tucumcari, NM

Change the Weather History Date:

Tuesday, February 5, 2013

  Actual Average Record
Temperature  
Mean Temperature 48 °F -  
Max Temperature 66 °F 50 °F 77 °F (1963)
Min Temperature 30 °F 25 °F -2 °F (1982)
Degree Days  
Heating Degree Days 17    
Moisture  
Dew Point 14 °F    
Average Humidity 30    
Maximum Humidity 52    
Minimum Humidity 10    
Precipitation  
Precipitation 0.00 in - - ()
Sea Level Pressure  
Sea Level Pressure 29.92 in    
Wind  
Wind Speed 9 mph (NNE)    
Max Wind Speed 22 mph    
Max Gust Speed 29 mph    
Visibility 10 miles    
Events      
Averages and records for this station are not official NWS values.
T = Trace of Precipitation, MM = Missing Value Source: NWS Daily Summary

Daily Weather History Graph

Daily Weather History Graph

Search for Another Location

Airport:

Trip Planner

Search our weather history database for the weather conditions in past years. The results will help you decide how hot, cold, wet, or windy it might be!

Date:

Astronomy

Feb. 05, 2013 Rise Set
Actual Time 6:50 AM MST 5:27 PM MST
Civil Twilight 6:23 AM MST 5:53 PM MST
Nautical Twilight 5:53 AM MST 6:23 PM MST
Astronomical Twilight 5:23 AM MST 6:53 PM MST
Moon 2:30 AM MST (2/5) 12:51 PM MST (2/5)
Length of Visible Light 11h 30m
Length of Day
10h 37m
Waning Crescent, 26% of the Moon is Illuminated
Feb 5
Waning Crescent
Feb 10
New
Feb 17
First Quarter
Feb 25
Full
Mar 4
Last Quarter

Hourly Weather History & Observations

Time (MST) Temp. Windchill Dew Point Humidity Pressure Visibility Wind Dir Wind Speed Gust Speed Precip Events Conditions
12:53 AM 42.1 °F 35.7 °F 12.9 °F 31% 29.82 in 10.0 mi SW 11.5 mph - N/A   Clear
1:53 AM 39.0 °F 33.4 °F 14.0 °F 36% 29.83 in 10.0 mi West 8.1 mph - N/A   Clear
2:53 AM 35.1 °F 28.6 °F 14.0 °F 42% 29.83 in 10.0 mi West 8.1 mph - N/A   Clear
3:53 AM 34.0 °F 28.8 °F 16.0 °F 48% 29.85 in 10.0 mi NNW 5.8 mph - N/A   Clear
4:53 AM 32.0 °F 28.7 °F 15.1 °F 50% 29.87 in 10.0 mi West 3.5 mph - N/A   Clear
5:53 AM 30.9 °F 23.5 °F 14.0 °F 50% 29.92 in 10.0 mi NNW 8.1 mph - N/A   Clear
6:53 AM 30.9 °F 24.3 °F 15.1 °F 52% 29.97 in 10.0 mi NW 6.9 mph - N/A   Clear
8:53 AM 48.0 °F - 16.0 °F 28% 29.97 in 10.0 mi Variable 3.5 mph - N/A   Clear
9:53 AM 55.0 °F - 12.0 °F 18% 29.96 in 10.0 mi North 8.1 mph - N/A   Clear
10:53 AM 60.1 °F - 10.9 °F 14% 29.95 in 10.0 mi North 11.5 mph - N/A   Clear
11:53 AM 66.0 °F - 8.1 °F 10% 29.91 in 10.0 mi NE 17.3 mph 28.8 mph N/A   Clear
12:53 PM 66.0 °F - 10.0 °F 11% 29.90 in 10.0 mi ENE 21.9 mph 26.5 mph N/A   Clear
1:53 PM 64.9 °F - 12.9 °F 13% 29.89 in 10.0 mi ENE 20.7 mph 25.3 mph N/A   Clear
2:53 PM 64.0 °F - 14.0 °F 14% 29.91 in 10.0 mi ENE 15.0 mph 20.7 mph N/A   Clear
3:53 PM 62.1 °F - 15.1 °F 16% 29.91 in 10.0 mi ENE 11.5 mph - N/A   Clear
4:53 PM 60.1 °F - 15.1 °F 17% 29.93 in 10.0 mi ENE 9.2 mph - N/A   Clear
5:53 PM 48.9 °F - 14.0 °F 25% 29.97 in 10.0 mi NE 6.9 mph - N/A   Clear
6:53 PM 46.0 °F 42.5 °F 15.1 °F 29% 29.99 in 10.0 mi NE 6.9 mph - N/A   Clear
7:53 PM 44.1 °F 40.1 °F 15.1 °F 31% 29.98 in 10.0 mi ENE 6.9 mph - N/A   Clear
8:53 PM 41.0 °F 36.4 °F 15.1 °F 35% 29.96 in 10.0 mi NE 6.9 mph - N/A   Clear
9:53 PM 39.0 °F - 16.0 °F 39% 29.95 in 10.0 mi Calm Calm - N/A   Clear
10:53 PM 37.0 °F - 15.1 °F 41% 29.93 in 10.0 mi Calm Calm - N/A   Clear
11:53 PM 37.0 °F 31.6 °F 16.0 °F 42% 29.91 in 10.0 mi West 6.9 mph - N/A   Clear